PDT,Max TemperatureF,Mean TemperatureF,Min TemperatureF,Max Dew PointF,MeanDew PointF,Min DewpointF,Max Humidity, Mean Humidity, Min Humidity, Max Sea Level PressureIn, Mean Sea Level PressureIn, Min Sea Level PressureIn, Max VisibilityMiles, Mean VisibilityMiles, Min VisibilityMiles, Max Wind SpeedMPH, Mean Wind SpeedMPH, Max Gust SpeedMPH,PrecipitationIn, CloudCover, Events, WindDirDegrees
2012-9-1,76,57,38,39,32,24,76,46,15,30.03,29.95,29.81,10,10,10,18,7,24,0.00,0,,191
2012-9-2,76,56,36,39,33,29,70,45,19,30.10,30.05,30.02,10,10,10,17,5,24,0.00,0,,194
2012-9-3,80,57,34,43,36,32,92,56,19,30.12,30.06,29.99,10,10,10,20,4,32,0.00,0,,261
2012-9-4,80,58,36,41,38,36,85,54,23,30.16,30.11,30.06,10,10,10,16,4,24,0.00,0,,316
2012-9-5,80,58,36,48,40,36,85,54,23,30.09,30.01,29.89,10,10,10,29,6,36,T,2,,30
2012-9-6,77,61,44,47,43,40,93,62,31,30.14,30.08,30.00,10,10,10,23,8,30,0.00,0,,38
2012-9-7,82,60,37,47,41,33,92,55,18,30.27,30.21,30.15,10,10,10,9,3,12,0.00,0,,22
2012-9-8,86,62,37,47,39,30,92,53,14,30.19,30.07,29.87,10,10,10,14,4,17,0.00,0,,7
2012-9-9,84,71,57,48,41,24,72,43,13,29.84,29.79,29.75,10,10,10,26,10,33,0.01,2,,183
2012-9-10,70,53,35,46,34,16,77,46,15,30.04,29.92,29.82,10,10,9,26,11,31,0.00,5,,199
2012-9-11,65,45,25,33,26,22,92,56,20,30.28,30.21,30.06,10,10,10,14,2,20,0.00,0,,200
2012-9-12,71,48,24,32,27,23,84,51,18,30.44,30.38,30.30,10,10,10,10,2,14,0.00,0,,1
2012-9-13,80,57,34,38,34,29,76,48,19,30.40,30.31,30.19,10,10,10,12,3,16,0.00,0,,1
2012-9-14,83,59,35,42,36,32,92,55,17,30.19,30.09,29.99,10,10,10,12,2,15,0.00,0,,37
2012-9-15,79,59,39,40,36,33,79,50,21,30.09,30.06,30.00,10,10,10,8,2,12,0.00,0,,307
2012-9-16,81,59,36,42,33,22,92,52,11,30.18,30.12,30.09,10,10,10,10,3,14,0.00,0,,287
2012-9-17,80,56,32,39,33,28,76,48,19,30.19,30.12,30.09,10,10,10,7,2,12,0.00,0,,153
2012-9-18,84,59,34,42,34,30,89,52,15,30.13,30.08,30.02,10,10,10,13,2,18,0.00,0,,226
2012-9-19,82,61,39,43,35,31,79,48,17,30.14,30.10,30.07,10,8,0,8,1,9,0.00,0,,161
2012-9-20,85,62,39,44,39,34,79,49,19,30.16,30.10,30.05,10,8,4,8,2,10,0.00,0,,164
2012-9-21,88,64,39,46,41,37,92,56,19,30.11,30.02,29.94,10,10,4,9,2,15,0.00,0,,336
2012-9-22,80,60,40,47,44,39,89,60,30,30.04,29.99,29.94,10,10,10,8,2,9,0.00,0,,165
2012-9-23,70,57,44,50,46,42,93,69,44,30.09,30.05,30.00,10,9,5,14,4,20,0.02,1,Rain,145
2012-9-24,75,57,38,46,42,37,100,68,35,30.13,30.05,29.98,10,8,2,8,1,12,0.00,0,,210
2012-9-25,72,56,39,47,44,38,96,73,40,30.03,29.99,29.96,10,8,5,7,1,,0.00,0,,222
2012-9-26,75,56,36,48,40,36,100,66,31,30.11,30.07,30.04,10,5,0,7,1,9,0.00,1,Fog,320
2012-9-27,77,57,36,47,41,34,92,60,28,30.13,30.06,29.99,10,9,3,8,2,12,0.00,0,,210
2012-9-28,78,58,37,46,40,35,92,59,25,30.01,29.96,29.91,10,9,4,10,3,14,0.00,0,,195
2012-9-29,78,61,44,46,42,38,76,54,31,30.09,30.04,29.96,10,10,8,18,5,23,0.00,1,,184
2012-9-30,76,56,35,43,33,24,100,58,15,30.31,30.25,30.11,10,10,4,10,2,14,0.00,0,,191